Flag for Antigua and Barbuda Weather past 2 weeks in Saint John's, Antigua and Barbuda

Now
81 °F

Passing clouds.


Feels Like: 83 °F
Forecast: 75 / 80 °F
Wind: 17 mph from East

Location: Vc Bird International Antigua Airport

Current Time: Mar 6, 2015 at 1:03:09 PM

Latest Report: Mar 6, 2015 at 12:00 PM


Visibility: N/A

Pressure: 30.12 "Hg

Humidity: 66%

Dew point: 68 °F

Location of Saint John'sLocation

Historic Weather in Saint John's — Graph

°F

Saint John's temperature yesterday

Maximum temperature yesterday: 82 °F (at 11:00 AM)
Minimum temperature yesterday: 73 °F (at 7:08 AM)
Average temperature yesterday: 78 °F

Past Weeks' High & Low Weather Summary

 TemperatureHumidityPressure
High82 °F (Feb 19, 12:00 PM)100% (Feb 22, 5:00 AM)30.12 "Hg (Feb 22, 5:00 AM)
Low32 °F (Feb 22, 5:00 AM)51% (Mar 5, 11:00 AM)29.95 "Hg (Feb 19, 3:00 PM)
Average78 °F69%30.04 "Hg
* Reported Feb 19 12:00 Noon — Mar 6 12:00 Noon, Saint John's, Weather by CustomWeather, © 2015

Note: Actual official high and low records may vary slightly from our data, if they occured in-between our weather recording intervals... More about our weather records

Advertising

Saint John's weather history for previous 24 hours

 ConditionsComfort  
Time TempWeatherWind HumidityBarometerVisibility
12:00 PM
Fri, Mar 6
81 °FPassing clouds.17 mph66%30.12 "HgN/A
11:00 AM81 °FScattered clouds.17 mph62%30.12 "HgN/A
10:00 AM81 °FPassing clouds.16 mph62%30.12 "HgN/A
9:00 AM79 °FScattered clouds.16 mph65%30.12 "HgN/A
8:00 AM75 °FBroken clouds.18 mph69%30.09 "HgN/A
7:00 AM73 °FSprinkles. Partly sunny.13 mph78%30.09 "HgN/A
6:00 AM77 °FPassing clouds.14 mph65%30.07 "HgN/A
5:00 AM77 °FPassing clouds.15 mph65%30.04 "HgN/A
4:00 AM77 °FPassing clouds.14 mph65%30.04 "HgN/A
3:00 AM77 °FPassing clouds.16 mph61%30.04 "HgN/A
2:00 AM77 °FPassing clouds.16 mph61%30.07 "HgN/A
12:00 AM77 °FPassing clouds.14 mph69%30.09 "HgN/A
11:00 PM
Thu, Mar 5
77 °FPassing clouds.16 mph69%30.09 "HgN/A
10:00 PM77 °FPassing clouds.16 mph65%30.09 "HgN/A
9:00 PM77 °FPassing clouds.17 mph65%30.09 "HgN/A
8:00 PM77 °FPassing clouds.15 mph65%30.07 "HgN/A
7:00 PM77 °FPassing clouds.16 mph65%30.07 "HgN/A
6:00 PM79 °FScattered clouds.16 mph65%30.04 "HgN/A
5:00 PM81 °FPartly sunny.15 mph62%30.04 "HgN/A
4:00 PM81 °FScattered clouds.18 mph58%30.04 "HgN/A
3:00 PM81 °FScattered clouds.18 mph58%30.04 "HgN/A
2:00 PM81 °FPassing clouds.15 mph62%30.04 "HgN/A
1:00 PM82 °FPartly sunny.15 mph55%30.07 "HgN/A
Weather by CustomWeather, © 2015

See weather overviewHow to use our weather pages